Location: Beugneux
(49.2348°N, 3.4138°E)
Time: 18:12:07
(UTC+00:00)

Daily predictions for brighter satellites

Satellite Brightness Start Highest point End
(mag) Time Altitude Azimuth Time Altitude Azimuth Time Altitude Azimuth
USA 281 3.6 17:13:19 10° NNE 17:19:53 70° WNW 17:26:24 10° SW
Cosmos 1536 Rocket 3.5 17:15:39 10° S 17:19:58 75° E 17:24:19 10° NNE
Landsat 4 4.1 17:18:26 10° S 17:22:02 68° WSW 17:25:42 10° NNW
Cosmos 2251 Rocket 4.2 17:21:12 10° SW 17:26:29 58° WNW 17:31:49 10° NNE
Cosmos 1892 2.9 17:23:43 10° SSE 17:27:18 46° E 17:30:56 10° NNE
Cosmos 1606 Rocket 3.7 17:25:44 10° N 17:29:58 51° ENE 17:34:11 10° SSE
SL-08 RB Rocket 4.3 17:25:26 10° S 17:30:03 66° WSW 17:34:43 10° NNW
CZ-4B R/B 4.0 17:25:41 10° ESE 17:30:11 28° ENE 17:34:46 10° N
CZ-4B DEB 4.4 17:25:04 10° SE 17:30:15 47° ENE 17:35:29 10° N
Cosmos 1825 2.9 17:27:05 10° SSE 17:30:21 31° E 17:33:39 10° NNE
Cosmos 1328 3.8 17:26:31 10° S 17:30:29 85° E 17:34:27 10° N
ADEOS 3.8 17:26:41 10° SSE 17:31:54 79° WSW 17:37:09 10° NNW
ISS -0.8 17:30:52 10° W 17:33:14 18° SW 17:35:35 10° S
Lacrosse 5 rocket 1.0 17:31:02 10° NW 17:34:35 64° NNE 17:38:13 10° ESE
Cosmos 1844 3.8 17:29:42 10° NNW 17:35:30 63° ENE 17:41:12 10° SE
USA 290 4.4 17:33:16 10° WSW 17:35:59 24° WNW 17:38:43 10° N
Meteor 1-11 4.4 17:32:12 10° S 17:37:50 55° E 17:43:28 10° NNE
Cosmos 2219 Rocket 3.5 17:34:44 10° SE 17:38:32 19° E 17:42:21 10° ENE
Cosmos 2360 Rocket 2.7 17:34:13 10° S 17:39:27 40° ESE 17:44:42 10° NE
Cosmos 2278 4.3 17:35:47 10° SW 17:41:23 60° WNW 17:47:04 10° NNE
Cosmos 1892 Rocket 4.1 17:40:47 10° SSE 17:44:48 36° E 17:48:50 10° NNE
Cosmos 407 Rocket 4.2 17:41:20 10° SW 17:46:21 54° WNW 17:51:24 10° NNE
Cosmos 1461 3.1 17:43:03 10° SSW 17:47:15 58° ESE 17:51:40 10° NE
Cosmos 676 Rocket 4.0 17:43:15 10° S 17:48:30 68° ESE 17:53:44 10° NNE
Cosmos 2278 Rocket 3.6 17:45:13 10° N 17:49:16 19° NE 17:52:11 14° ENE
Cosmos 1340 3.2 17:46:02 10° N 17:49:22 32° ENE 17:52:43 10° SE
COSMO-SKYMED 1 2.6 17:45:28 10° NNE 17:49:48 59° ESE 17:54:04 10° S
Cosmos 44 Rocket 4.4 17:47:48 10° SSE 17:51:30 23° ESE 17:54:10 15° ENE
ATLAS 5 CENTAUR R/B 3.8 17:50:17 10° NW 17:52:38 14° N 17:55:12 10° NNE
Cosmos 2322 Rocket 2.2 17:47:23 10° SSW 17:52:57 71° ESE 17:58:34 10° NNE
CZ-4C R/B 3.4 17:49:21 10° NNE 17:53:03 48° E 17:56:32 10° S
BlueWalker 3 2.5 17:50:20 10° WNW 17:54:05 45° N 17:56:49 17° ENE
Cosmos 2333 Rocket 2.8 17:49:38 10° S 17:54:43 35° ESE 17:59:50 10° NE
Cosmos 1633 2.5 17:55:58 10° S 17:59:12 49° E 18:02:28 10° NNE
Cosmos 1726 Rocket 3.4 17:56:58 10° N 18:01:19 82° E 18:05:38 10° SSE
Cosmos 1606 3.8 17:58:54 10° NNE 18:02:01 23° ENE 18:03:57 16° ESE
CZ-4 R/B 2.2 17:58:39 10° SE 18:02:12 29° ENE 18:05:44 10° N
IRIDIUM 106 4.4 17:59:04 10° N 18:04:12 53° E 18:09:18 10° SSE
In-Cosmos 22 Rocket 4.2 18:01:27 10° S 18:07:15 76° E 18:13:05 10° NNE
SL-16 R/B 2.6 18:03:23 10° SW 18:09:02 67° WNW 18:14:43 10° NNE
COSMOS 2428 3.9 18:05:48 10° SSE 18:09:53 21° E 18:11:02 19° E
RESURS DK-1 2.5 18:05:46 10° NNW 18:09:53 74° WSW 18:13:59 10° SSE
SL-4 R/B 1.7 18:07:21 10° WNW 18:10:51 66° NNE 18:12:47 26° E
Cosmos 1408 4.4 18:08:30 10° SW 18:11:34 30° WNW 18:14:40 10° N
Cosmos 2333 4.4 18:08:33 10° S 18:13:53 47° ESE 18:18:59 11° NE
Genesis I 3.2 18:11:25 10° SSW 18:15:19 65° SE 18:17:45 22° NE
Cosmos 1626 Rocket 4.4 18:14:14 10° SSE 18:17:54 28° E 18:19:21 23° ENE
Cosmos 1980 Rocket 4.3 18:14:32 10° W 18:18:56 22° NW 18:23:22 10° N
Cosmos 1943 Rocket 3.9 18:16:30 10° N 18:19:45 15° NNE 18:20:45 15° NE
SKYMED 3 4.3 18:16:25 10° NNE 18:20:34 84° ESE 18:24:43 10° SSW
Cosmos 1386 Rocket 4.3 18:19:43 10° N 18:25:43 65° ENE 18:31:43 10° SSE
Okean O Rocket 1.8 18:22:49 10° SE 18:27:03 49° ENE 18:31:20 10° N
Cosmos 1745 Rocket 3.9 18:20:53 10° N 18:27:06 63° ENE 18:33:11 10° SSE
Lacrosse 5 2.1 18:24:52 10° WSW 18:29:57 69° NNW 18:33:05 24° NE
Feng Yun 1-1 Rocket 4.3 18:26:30 10° SE 18:31:51 54° ENE 18:37:09 10° N
IGS 5A 3.8 18:31:16 32° ESE 18:32:22 39° ENE 18:36:14 10° N
Okean-O 4.1 18:34:20 20° NE 18:34:20 20° NE 18:36:27 10° N
MOS 1-B 4.3 18:27:23 10° SSE 18:33:11 84° ENE 18:39:02 10° NNW
CZ-2C R/B 4.3 18:30:15 10° NNE 18:34:08 37° E 18:45:44 10° SSE
Cosmos 2322 4.1 18:29:03 10° S 18:34:21 41° ESE 18:37:01 26° ENE
PAYLOAD B 4.5 18:31:07 10° S 18:36:36 72° WSW 18:42:08 10° NNW
Okean 1-7 Rocket 3.9 18:33:06 10° SSE 18:37:15 41° E 18:39:09 27° NE
DMSP B5D1-3 4.5 18:32:50 10° NNE 18:37:55 59° ESE 18:42:57 10° S
USA 215 4.4 18:35:28 10° SSE 18:41:34 41° SW 18:47:42 10° WNW
Cosmos 2058 Rocket 3.5 18:39:56 10° NNW 18:44:18 64° W 18:48:41 10° S
Cosmos 1869 4.1 18:41:07 10° NNW 18:44:54 50° W 18:48:43 10° S
Cosmos 1709 Rocket 4.0 18:39:14 10° N 18:45:18 56° ENE 18:51:16 10° SSE
YAOGAN 1 2.9 18:41:08 10° S 18:45:26 67° WSW 18:49:45 10° NNW
Cosmos 1814 Rocket 3.9 18:45:35 10° NNW 18:50:57 73° ENE 18:54:29 22° SSE
Cosmos 1553 Rocket 4.2 18:46:08 10° SSW 18:52:13 71° WNW 18:58:26 10° N
Gblst 52 Del rocket 4.1 18:46:55 10° W 18:52:30 73° N 18:54:30 40° ENE
ATLAS CENTAUR R/B 3.9 18:52:31 10° WNW 18:55:15 15° NNW 18:57:41 11° NNE
Cosmos 1417 Rocket 4.4 18:49:27 10° S 18:55:43 89° WNW 19:01:57 10° N
Cosmos 1850 Rocket 4.0 18:53:18 10° SSW 18:58:29 81° WNW 19:02:49 15° NNE
Cosmos 841 Rocket 4.3 18:53:23 10° NNW 18:58:29 51° WSW 19:03:32 10° S
Cosmos 883 Rocket 4.4 19:01:13 10° S 19:07:25 68° E 19:13:43 10° NNE
Cosmos 1741 Rocket 4.2 19:02:22 10° SSW 19:07:41 73° WNW 19:12:02 16° NNE
SJ-6B 3.6 19:10:10 41° N 19:10:10 41° N 19:12:54 10° N
USA 81 3.9 19:04:46 10° S 19:10:02 84° E 19:15:21 10° N
CZ-4B R/B 3.9 19:05:12 10° S 19:10:26 54° W 19:15:49 10° NNW
Lacrosse 5 rocket 3.2 19:10:18 10° WNW 19:13:11 22° SW 19:14:37 18° SSW
Cosmos-2242 3.9 19:09:57 10° N 19:12:36 36° N 19:12:36 36° N
Cosmos 2208 Rocket 4.0 19:12:11 10° NNW 19:16:55 58° NE 19:16:55 58° NE
Lacrosse 4 Rocket 3.8 19:18:34 10° N 19:19:34 14° N 19:19:34 14° N
Cosmos 2219 Rocket 2.2 19:16:13 10° SSW 19:21:48 78° WNW 19:24:23 34° NNE
Cosmos 2360 Rocket 3.3 19:18:08 10° WSW 19:23:27 41° NW 19:28:11 13° NNE
Meteor 2-2 Rocket 4.2 19:21:25 10° N 19:26:37 63° NE 19:26:37 63° NE
S3M 4.4 19:22:18 10° SSW 19:28:39 65° WNW 19:35:00 10° N
Cosmos 1570 Rocket 3.9 19:23:20 10° NNW 19:28:43 90° WSW 19:29:08 77° SSE
Cosmos 44 Rocket 3.6 19:27:58 10° SW 19:32:38 60° NW 19:32:55 58° NNW
BlueWalker 3 3.3 19:29:05 10° WNW 19:31:36 38° WNW 19:31:36 38° WNW
Cosmos 2278 Rocket 2.1 19:28:38 10° NNW 19:34:05 74° NNE 19:34:05 74° NNE
CZ-4 R/B 3.3 19:33:26 10° SSW 19:37:03 30° W 19:40:39 10° NNW
Cosmos 968 Rocket 3.8 19:32:13 10° SSW 19:36:19 57° SSW 19:36:19 57° SSW
Cosmos 1606 4.5 19:34:05 10° NNW 19:37:30 31° W 19:38:52 24° SW
Cosmos 2322 Rocket 4.1 19:32:54 10° W 19:37:33 26° NW 19:42:10 10° NNE
ATLAS 5 CENTAUR R/B 3.8 19:35:14 10° NNW 19:37:29 19° N 19:37:29 19° N
Cosmos 2333 Rocket 3.1 19:33:27 10° SW 19:38:52 45° NW 19:42:19 22° N
BREEZE-M DEB (TANK) 3.2 19:29:21 10° WSW 19:38:56 68° SSW 19:38:56 68° SSW
Cosmos 1812 Rocket 4.3 19:35:07 10° NNW 19:38:38 49° NW 19:38:38 49° NW
Resurs 01 Rocket 4.1 19:45:54 13° N 19:45:54 13° N 19:46:25 10° N
Cosmos 2369 Rocket 4.2 19:44:33 10° N 19:46:17 16° N 19:46:17 16° N
SL-4 R/B 4.1 19:46:36 10° WNW 19:48:06 22° W 19:48:06 22° W
Cosmos 2315 Rocket 4.2 19:46:07 10° SSW 19:52:25 69° WNW 19:58:49 10° N
COSMOS 2428 2.8 19:47:51 10° SW 19:53:09 70° W 19:53:09 70° W
CSL-04 Rocket 4.1 19:53:48 56° SW 19:54:22 59° WSW 19:59:45 10° NNW
Okean O Rocket 4.0 20:00:21 10° SW 20:03:39 21° W 20:07:00 10° NW
Cosmos 1943 Rocket 3.5 19:59:18 10° NNW 20:02:17 30° N 20:02:17 30° N
Lacrosse 5 3.5 20:08:53 10° WNW 20:12:18 31° NW 20:12:18 31° NW
Cosmos 2219 Rocket 4.5 21:02:44 10° W 21:06:10 19° NW 21:06:10 19° NW
